Starlink 32582

operational
NORAD ID: 62033 Int'l Des: 2024-216 Owner: SPXS Country: US Constellation: starlink
LEOCIRCULAR

关于 Starlink 32582

正在加载描述...

实时位置

正在加载3D地球...

即将过境

高度历史

Altitude vs Time

uPlot chart will show altitude changes over time

两行轨道根数

1 62033U 24216B 25260.01676361 .00020863 00000-0 76618-3 0 9994
2 62033 43.0006 164.1412 0000934 283.9650 76.1098 15.27551205 47237
Epoch: Sep 17, 2025 • Age: 11 hours

当前状态

高度 493.3 km
速度 7.62 km/s
星下点 -37.16°S, 55.71°W
发射日期 Nov 21, 2024
运行时间 0.8 years
类型 internet

技术详情

分类 Payload
质量 730.00 kg
干质量 700.00 kg
总质量 730.00 kg
长度 0.30 m
直径 4.10 m
跨度 29.00 m
形状 Box + pan
制造商 SPXS
平台类型 Starlink V2M
阶段状态 In Orbit
所有者/国家 SPXS/US

大型星座

Loading constellations...